Year,Month,Day,Hour,Minute,Value (Times are PST for temperature in C)
2013,07,16,00,00,15.80
2013,07,16,00,01,15.70
2013,07,16,00,02,15.70
2013,07,16,00,03,15.60
2013,07,16,00,04,15.60
2013,07,16,00,05,15.60
2013,07,16,00,06,15.60
2013,07,16,00,07,15.50
2013,07,16,00,08,15.50
2013,07,16,00,09,15.50
2013,07,16,00,10,15.50
2013,07,16,00,11,15.40
2013,07,16,00,12,15.40
2013,07,16,00,13,15.40
2013,07,16,00,14,15.30
2013,07,16,00,15,15.30
2013,07,16,00,16,15.30
2013,07,16,00,17,15.30
2013,07,16,00,18,15.30
2013,07,16,00,19,15.30
2013,07,16,00,20,15.20
2013,07,16,00,21,15.20
2013,07,16,00,22,15.20
2013,07,16,00,23,15.20
2013,07,16,00,24,15.20
2013,07,16,00,25,15.10
2013,07,16,00,26,15.10
2013,07,16,00,27,15.10
2013,07,16,00,28,15.10
2013,07,16,00,29,15.10
2013,07,16,00,30,15.10
2013,07,16,00,31,15.00
2013,07,16,00,32,15.00
2013,07,16,00,33,15.00
2013,07,16,00,34,14.90
2013,07,16,00,35,14.90
2013,07,16,00,36,14.90
2013,07,16,00,37,14.80
2013,07,16,00,38,14.80
2013,07,16,00,39,14.80
2013,07,16,00,40,14.80
2013,07,16,00,41,14.80
2013,07,16,00,42,14.80
2013,07,16,00,43,14.80
2013,07,16,00,44,14.80
2013,07,16,00,45,14.80
2013,07,16,00,46,14.70
2013,07,16,00,47,14.70
2013,07,16,00,48,14.70
2013,07,16,00,49,14.70
2013,07,16,00,50,14.70
2013,07,16,00,51,14.70
2013,07,16,00,52,14.70
2013,07,16,00,53,14.70
2013,07,16,00,54,14.70
2013,07,16,00,55,14.70
2013,07,16,00,56,14.70
2013,07,16,00,57,14.70
2013,07,16,00,58,14.60
2013,07,16,00,59,14.60
2013,07,16,01,00,14.60
2013,07,16,01,01,14.60
2013,07,16,01,02,14.60
2013,07,16,01,03,14.60
2013,07,16,01,04,14.70
2013,07,16,01,05,14.70
2013,07,16,01,06,14.70
2013,07,16,01,07,14.80
2013,07,16,01,08,14.80
2013,07,16,01,09,14.80
2013,07,16,01,10,14.80
2013,07,16,01,11,14.80
2013,07,16,01,12,14.70
2013,07,16,01,13,14.60
2013,07,16,01,14,14.60
2013,07,16,01,15,14.50
2013,07,16,01,16,14.50
2013,07,16,01,17,14.50
2013,07,16,01,18,14.40
2013,07,16,01,19,14.40
2013,07,16,01,20,14.40
2013,07,16,01,21,14.50
2013,07,16,01,22,14.50
2013,07,16,01,23,14.50
2013,07,16,01,24,14.50
2013,07,16,01,25,14.50
2013,07,16,01,26,14.50
2013,07,16,01,27,14.60
2013,07,16,01,28,14.60
2013,07,16,01,29,14.60
2013,07,16,01,30,14.60
2013,07,16,01,31,14.60
2013,07,16,01,32,14.50
2013,07,16,01,33,14.50
2013,07,16,01,34,14.40
2013,07,16,01,35,14.30
2013,07,16,01,36,14.20
2013,07,16,01,37,14.20
2013,07,16,01,38,14.20
2013,07,16,01,39,14.20
2013,07,16,01,40,14.20
2013,07,16,01,41,14.20
2013,07,16,01,42,14.20
2013,07,16,01,43,14.20
2013,07,16,01,44,14.20
2013,07,16,01,45,14.20
2013,07,16,01,46,14.20
2013,07,16,01,47,14.20
2013,07,16,01,48,14.20
2013,07,16,01,49,14.30
2013,07,16,01,50,14.20
2013,07,16,01,51,14.20
2013,07,16,01,52,14.10
2013,07,16,01,53,13.90
2013,07,16,01,54,13.90
2013,07,16,01,55,13.80
2013,07,16,01,56,13.80
2013,07,16,01,57,13.80
2013,07,16,01,58,13.80
2013,07,16,01,59,13.80
2013,07,16,02,00,13.80
2013,07,16,02,01,13.80
2013,07,16,02,02,13.80
2013,07,16,02,03,13.80
2013,07,16,02,04,13.80
2013,07,16,02,05,13.80
2013,07,16,02,06,13.80
2013,07,16,02,07,13.80
2013,07,16,02,08,13.80
2013,07,16,02,09,13.80
2013,07,16,02,10,13.80
2013,07,16,02,11,13.80
2013,07,16,02,12,13.80
2013,07,16,02,13,13.80
2013,07,16,02,14,13.90
2013,07,16,02,15,13.90
2013,07,16,02,16,13.90
2013,07,16,02,17,13.90
2013,07,16,02,18,14.00
2013,07,16,02,19,14.00
2013,07,16,02,20,14.00
2013,07,16,02,21,14.00
2013,07,16,02,22,14.00
2013,07,16,02,23,14.10
2013,07,16,02,24,14.10
2013,07,16,02,25,14.10
2013,07,16,02,26,14.20
2013,07,16,02,27,14.20
2013,07,16,02,28,14.20
2013,07,16,02,29,14.30
2013,07,16,02,30,14.30
2013,07,16,02,31,14.40
2013,07,16,02,32,14.40
2013,07,16,02,33,14.40
2013,07,16,02,34,14.50
2013,07,16,02,35,14.50
2013,07,16,02,36,14.50
2013,07,16,02,37,14.50
2013,07,16,02,38,14.60
2013,07,16,02,39,14.60
2013,07,16,02,40,14.60
2013,07,16,02,41,14.70
2013,07,16,02,42,14.70
2013,07,16,02,43,14.80
2013,07,16,02,44,14.80
2013,07,16,02,45,14.90
2013,07,16,02,46,14.90
2013,07,16,02,47,15.00
2013,07,16,02,48,15.00
2013,07,16,02,49,15.00
2013,07,16,02,50,15.00
2013,07,16,02,51,15.00
2013,07,16,02,52,15.00
2013,07,16,02,53,14.90
2013,07,16,02,54,14.90
2013,07,16,02,55,14.90
2013,07,16,02,56,14.90
2013,07,16,02,57,14.90
2013,07,16,02,58,14.80
2013,07,16,02,59,14.80
2013,07,16,03,00,14.80
2013,07,16,03,01,14.80
2013,07,16,03,02,14.80
2013,07,16,03,03,14.80
2013,07,16,03,04,14.80
2013,07,16,03,05,14.80
2013,07,16,03,06,14.80
2013,07,16,03,07,14.80
2013,07,16,03,08,14.80
2013,07,16,03,09,14.80
2013,07,16,03,10,14.80
2013,07,16,03,11,14.80
2013,07,16,03,12,14.90
2013,07,16,03,13,14.90
2013,07,16,03,14,14.90
2013,07,16,03,15,14.90
2013,07,16,03,16,14.90
2013,07,16,03,17,14.90
2013,07,16,03,18,14.90
2013,07,16,03,19,14.90
2013,07,16,03,20,14.90
2013,07,16,03,21,14.80
2013,07,16,03,22,14.80
2013,07,16,03,23,14.70
2013,07,16,03,24,14.70
2013,07,16,03,25,14.70
2013,07,16,03,26,14.70
2013,07,16,03,27,14.70
2013,07,16,03,28,14.70
2013,07,16,03,29,14.70
2013,07,16,03,30,14.60
2013,07,16,03,31,14.60
2013,07,16,03,32,14.60
2013,07,16,03,33,14.60
2013,07,16,03,34,14.50
2013,07,16,03,35,14.50
2013,07,16,03,36,14.50
2013,07,16,03,37,14.50
2013,07,16,03,38,14.40
2013,07,16,03,39,14.40
2013,07,16,03,40,14.40
2013,07,16,03,41,14.40
2013,07,16,03,42,14.40
2013,07,16,03,43,14.40
2013,07,16,03,44,14.40
2013,07,16,03,45,14.30
2013,07,16,03,46,14.40
2013,07,16,03,47,14.40
2013,07,16,03,48,14.40
2013,07,16,03,49,14.40
2013,07,16,03,50,14.40
2013,07,16,03,51,14.40
2013,07,16,03,52,14.40
2013,07,16,03,53,14.40
2013,07,16,03,54,14.40
2013,07,16,03,55,14.40
2013,07,16,03,56,14.40
2013,07,16,03,57,14.40
2013,07,16,03,58,14.40
2013,07,16,03,59,14.40
2013,07,16,04,00,14.30
2013,07,16,04,01,14.30
2013,07,16,04,02,14.30
2013,07,16,04,03,14.30
2013,07,16,04,04,14.30
2013,07,16,04,05,14.30
2013,07,16,04,06,14.30
2013,07,16,04,07,14.30
2013,07,16,04,08,14.30
2013,07,16,04,09,14.30
2013,07,16,04,10,14.30
2013,07,16,04,11,14.40
2013,07,16,04,12,14.40
2013,07,16,04,13,14.40
2013,07,16,04,14,14.40
2013,07,16,04,15,14.40
2013,07,16,04,16,14.40
2013,07,16,04,17,14.40
2013,07,16,04,18,14.50
2013,07,16,04,19,14.50
2013,07,16,04,20,14.50
2013,07,16,04,21,14.50
2013,07,16,04,22,14.60
2013,07,16,04,23,14.60
2013,07,16,04,24,14.60
2013,07,16,04,25,14.60
2013,07,16,04,26,14.70
2013,07,16,04,27,14.70
2013,07,16,04,28,14.70
2013,07,16,04,29,14.70
2013,07,16,04,30,14.80
2013,07,16,04,31,14.80
2013,07,16,04,32,14.80
2013,07,16,04,33,14.80
2013,07,16,04,34,14.80
2013,07,16,04,35,14.80
2013,07,16,04,36,14.80
2013,07,16,04,37,14.80
2013,07,16,04,38,14.80
2013,07,16,04,39,14.80
2013,07,16,04,40,14.80
2013,07,16,04,41,14.80
2013,07,16,04,42,14.80
2013,07,16,04,43,14.80
2013,07,16,04,44,14.90
2013,07,16,04,45,14.90
2013,07,16,04,46,14.90
2013,07,16,04,47,14.90
2013,07,16,04,48,14.90
2013,07,16,04,49,14.90
2013,07,16,04,50,14.90
2013,07,16,04,51,14.90
2013,07,16,04,52,14.90
2013,07,16,04,53,15.00
2013,07,16,04,54,15.00
2013,07,16,04,55,15.00
2013,07,16,04,56,15.00
2013,07,16,04,57,15.00
2013,07,16,04,58,15.00
2013,07,16,04,59,15.00
2013,07,16,05,00,15.00
2013,07,16,05,01,15.10
2013,07,16,05,02,15.10
2013,07,16,05,03,15.10
2013,07,16,05,04,15.10
2013,07,16,05,05,15.10
2013,07,16,05,06,15.10
2013,07,16,05,07,15.20
2013,07,16,05,08,15.20
2013,07,16,05,09,15.20
2013,07,16,05,10,15.20
2013,07,16,05,11,15.30
2013,07,16,05,12,15.30
2013,07,16,05,13,15.30
2013,07,16,05,14,15.30
2013,07,16,05,15,15.30
2013,07,16,05,16,15.30
2013,07,16,05,17,15.30
2013,07,16,05,18,15.30
2013,07,16,05,19,15.30
2013,07,16,05,20,15.40
2013,07,16,05,21,15.40
2013,07,16,05,22,15.40
2013,07,16,05,23,15.40
2013,07,16,05,24,15.50
2013,07,16,05,25,15.50
2013,07,16,05,26,15.50
2013,07,16,05,27,15.50
2013,07,16,05,28,15.50
2013,07,16,05,29,15.50
2013,07,16,05,30,15.50
2013,07,16,05,31,15.50
2013,07,16,05,32,15.50
2013,07,16,05,33,15.50
2013,07,16,05,34,15.50
2013,07,16,05,35,15.50
2013,07,16,05,36,15.50
2013,07,16,05,37,15.50
2013,07,16,05,38,15.50
2013,07,16,05,39,15.60
2013,07,16,05,40,15.60
2013,07,16,05,41,15.60
2013,07,16,05,42,15.60
2013,07,16,05,43,15.60
2013,07,16,05,44,15.60
2013,07,16,05,45,15.60
2013,07,16,05,46,15.60
2013,07,16,05,47,15.60
2013,07,16,05,48,15.70
2013,07,16,05,49,15.70
2013,07,16,05,50,15.70
2013,07,16,05,51,15.70
2013,07,16,05,52,15.70
2013,07,16,05,53,15.70
2013,07,16,05,54,15.80
2013,07,16,05,55,15.80
2013,07,16,05,56,15.80
2013,07,16,05,57,15.80
2013,07,16,05,58,15.80
2013,07,16,05,59,15.80
2013,07,16,06,00,15.80
2013,07,16,06,01,15.80
2013,07,16,06,02,15.80
2013,07,16,06,03,15.80
2013,07,16,06,04,15.80
2013,07,16,06,05,15.80
2013,07,16,06,06,15.80
2013,07,16,06,07,15.80
2013,07,16,06,08,15.80
2013,07,16,06,09,15.80
2013,07,16,06,10,15.90
2013,07,16,06,11,15.90
2013,07,16,06,12,15.90
2013,07,16,06,13,16.00
2013,07,16,06,14,16.10
2013,07,16,06,15,16.10
2013,07,16,06,16,16.10
2013,07,16,06,17,16.10
2013,07,16,06,18,16.10
2013,07,16,06,19,16.10
2013,07,16,06,20,16.10
2013,07,16,06,21,16.10
2013,07,16,06,22,16.20
2013,07,16,06,23,16.20
2013,07,16,06,24,16.20
2013,07,16,06,25,16.20
2013,07,16,06,26,16.30
2013,07,16,06,27,16.30
2013,07,16,06,28,16.30
2013,07,16,06,29,16.40
2013,07,16,06,30,16.40
2013,07,16,06,31,16.40
2013,07,16,06,32,16.50
2013,07,16,06,33,16.60
2013,07,16,06,34,16.60
2013,07,16,06,35,16.70
2013,07,16,06,36,16.70
2013,07,16,06,37,16.70
2013,07,16,06,38,16.70
2013,07,16,06,39,16.80
2013,07,16,06,40,16.80
2013,07,16,06,41,16.90
2013,07,16,06,42,16.90
2013,07,16,06,43,17.00
2013,07,16,06,44,17.00
2013,07,16,06,45,17.10
2013,07,16,06,46,17.10
2013,07,16,06,47,17.20
2013,07,16,06,48,17.30
2013,07,16,06,49,17.30
2013,07,16,06,50,17.40
2013,07,16,06,51,17.40
2013,07,16,06,52,17.50
2013,07,16,06,53,17.60
2013,07,16,06,54,17.70
2013,07,16,06,55,17.80
2013,07,16,06,56,17.90
2013,07,16,06,57,18.00
2013,07,16,06,58,18.20
2013,07,16,06,59,18.30
2013,07,16,07,00,18.40
2013,07,16,07,01,18.50
2013,07,16,07,02,18.50
2013,07,16,07,03,18.60
2013,07,16,07,04,18.60
2013,07,16,07,05,18.70
2013,07,16,07,06,18.70
2013,07,16,07,07,18.80
2013,07,16,07,08,18.90
2013,07,16,07,09,18.90
2013,07,16,07,10,18.90
2013,07,16,07,11,18.90
2013,07,16,07,12,19.00
2013,07,16,07,13,19.10
2013,07,16,07,14,19.10
2013,07,16,07,15,19.10
2013,07,16,07,16,19.10
2013,07,16,07,17,19.20
2013,07,16,07,18,19.30
2013,07,16,07,19,19.30
2013,07,16,07,20,19.40
2013,07,16,07,21,19.40
2013,07,16,07,22,19.50
2013,07,16,07,23,19.50
2013,07,16,07,24,19.60
2013,07,16,07,25,19.60
2013,07,16,07,26,19.70
2013,07,16,07,27,19.80
2013,07,16,07,28,19.80
2013,07,16,07,29,19.90
2013,07,16,07,30,19.90
2013,07,16,07,31,19.90
2013,07,16,07,32,20.00
2013,07,16,07,33,20.10
2013,07,16,07,34,20.10
2013,07,16,07,35,20.20
2013,07,16,07,36,20.20
2013,07,16,07,37,20.20
2013,07,16,07,38,20.30
2013,07,16,07,39,20.30
2013,07,16,07,40,20.30
2013,07,16,07,41,20.30
2013,07,16,07,42,20.30
2013,07,16,07,43,20.30
2013,07,16,07,44,20.40
2013,07,16,07,45,20.40
2013,07,16,07,46,20.40
2013,07,16,07,47,20.40
2013,07,16,07,48,20.50
2013,07,16,07,49,20.50
2013,07,16,07,50,20.40
2013,07,16,07,51,20.40
2013,07,16,07,52,20.40
2013,07,16,07,53,20.40
2013,07,16,07,54,20.30
2013,07,16,07,55,20.30
2013,07,16,07,56,20.30
2013,07,16,07,57,20.40
2013,07,16,07,58,20.40
2013,07,16,07,59,20.40
2013,07,16,08,00,20.50
2013,07,16,08,01,20.50
2013,07,16,08,02,20.60
2013,07,16,08,03,20.60
2013,07,16,08,04,20.60
2013,07,16,08,05,20.70
2013,07,16,08,06,20.70
2013,07,16,08,07,20.70
2013,07,16,08,08,20.80
2013,07,16,08,09,20.80
2013,07,16,08,10,20.80
2013,07,16,08,11,20.90
2013,07,16,08,12,20.90
2013,07,16,08,13,20.90
2013,07,16,08,14,20.90
2013,07,16,08,15,20.90
2013,07,16,08,16,20.90
2013,07,16,08,17,21.00
2013,07,16,08,18,21.00
2013,07,16,08,19,21.00
2013,07,16,08,20,21.10
2013,07,16,08,21,21.10
2013,07,16,08,22,21.20
2013,07,16,08,23,21.20
2013,07,16,08,24,21.20
2013,07,16,08,25,21.20
2013,07,16,08,26,21.20
2013,07,16,08,27,21.20
2013,07,16,08,28,21.30
2013,07,16,08,29,21.30
2013,07,16,08,30,21.30
2013,07,16,08,31,21.30
2013,07,16,08,32,21.30
2013,07,16,08,33,21.30
2013,07,16,08,34,21.40
2013,07,16,08,35,21.40
2013,07,16,08,36,21.40
2013,07,16,08,37,21.50
2013,07,16,08,38,21.50
2013,07,16,08,39,21.60
2013,07,16,08,40,21.60
2013,07,16,08,41,21.60
2013,07,16,08,42,21.60
2013,07,16,08,43,21.60
2013,07,16,08,44,21.60
2013,07,16,08,45,21.60
2013,07,16,08,46,21.60
2013,07,16,08,47,21.60
2013,07,16,08,48,21.60
2013,07,16,08,49,21.60
2013,07,16,08,50,21.60
2013,07,16,08,51,21.60
2013,07,16,08,52,21.60
2013,07,16,08,53,21.70
2013,07,16,08,54,21.70
2013,07,16,08,55,21.80
2013,07,16,08,56,21.80
2013,07,16,08,57,21.90
2013,07,16,08,58,21.90
2013,07,16,08,59,21.90
2013,07,16,09,00,22.00
2013,07,16,09,01,22.00
2013,07,16,09,02,22.10
2013,07,16,09,03,22.20
2013,07,16,09,04,22.20
2013,07,16,09,05,22.30
2013,07,16,09,06,22.30
2013,07,16,09,07,22.40
2013,07,16,09,08,22.40
2013,07,16,09,09,22.50
2013,07,16,09,10,22.50
2013,07,16,09,11,22.60
2013,07,16,09,12,22.60
2013,07,16,09,13,22.60
2013,07,16,09,14,22.70
2013,07,16,09,15,22.80
2013,07,16,09,16,22.80
2013,07,16,09,17,22.80
2013,07,16,09,18,22.80
2013,07,16,09,19,22.90
2013,07,16,09,20,22.90
2013,07,16,09,21,22.90
2013,07,16,09,22,22.90
2013,07,16,09,23,22.90
2013,07,16,09,24,22.90
2013,07,16,09,25,23.00
2013,07,16,09,26,23.10
2013,07,16,09,27,23.10
2013,07,16,09,28,23.10
2013,07,16,09,29,23.10
2013,07,16,09,30,23.10
2013,07,16,09,31,23.20
2013,07,16,09,32,23.20
2013,07,16,09,33,23.30
2013,07,16,09,34,23.30
2013,07,16,09,35,23.30
2013,07,16,09,36,23.50
2013,07,16,09,37,23.60
2013,07,16,09,38,23.70
2013,07,16,09,39,23.80
2013,07,16,09,40,23.80
2013,07,16,09,41,23.80
2013,07,16,09,42,23.70
2013,07,16,09,43,23.70
2013,07,16,09,44,23.70
2013,07,16,09,45,23.80
2013,07,16,09,46,23.90
2013,07,16,09,47,23.90
2013,07,16,09,48,24.00
2013,07,16,09,49,24.10
2013,07,16,09,50,24.00
2013,07,16,09,51,23.90
2013,07,16,09,52,24.00
2013,07,16,09,53,24.10
2013,07,16,09,54,24.10
2013,07,16,09,55,24.20
2013,07,16,09,56,24.30
2013,07,16,09,57,24.40
2013,07,16,09,58,24.50
2013,07,16,09,59,24.60
2013,07,16,10,00,24.60
2013,07,16,10,01,24.70
2013,07,16,10,02,24.60
2013,07,16,10,03,24.60
2013,07,16,10,04,24.60
2013,07,16,10,05,24.60
2013,07,16,10,06,24.70
2013,07,16,10,07,24.70
2013,07,16,10,08,24.70
2013,07,16,10,09,24.70
2013,07,16,10,10,24.60
2013,07,16,10,11,24.60
2013,07,16,10,12,24.60
2013,07,16,10,13,24.70
2013,07,16,10,14,24.90
2013,07,16,10,15,25.00
2013,07,16,10,16,25.10
2013,07,16,10,17,25.20
2013,07,16,10,18,25.20
2013,07,16,10,19,25.20
2013,07,16,10,20,25.10
2013,07,16,10,21,25.20
2013,07,16,10,22,25.30
2013,07,16,10,23,25.30
2013,07,16,10,24,25.30
2013,07,16,10,25,25.40
2013,07,16,10,26,25.40
2013,07,16,10,27,25.30
2013,07,16,10,28,25.20
2013,07,16,10,29,25.20
2013,07,16,10,30,25.20
2013,07,16,10,31,25.20
2013,07,16,10,32,25.30
2013,07,16,10,33,25.40
2013,07,16,10,34,25.50
2013,07,16,10,35,25.70
2013,07,16,10,36,25.80
2013,07,16,10,37,25.90
2013,07,16,10,38,26.00
2013,07,16,10,39,26.20
2013,07,16,10,40,26.40
2013,07,16,10,41,26.60
2013,07,16,10,42,26.60
2013,07,16,10,43,26.70
2013,07,16,10,44,26.80
2013,07,16,10,45,26.90
2013,07,16,10,46,27.10
2013,07,16,10,47,27.10
2013,07,16,10,48,27.10
2013,07,16,10,49,27.20
2013,07,16,10,50,27.30
2013,07,16,10,51,27.30
2013,07,16,10,52,27.40
2013,07,16,10,53,27.50
2013,07,16,10,54,27.60
2013,07,16,10,55,27.70
2013,07,16,10,56,27.70
2013,07,16,10,57,27.60
2013,07,16,10,58,27.40
2013,07,16,10,59,27.40
2013,07,16,11,00,27.40
2013,07,16,11,01,27.30
2013,07,16,11,02,27.20
2013,07,16,11,03,27.00
2013,07,16,11,04,26.90
2013,07,16,11,05,26.80
2013,07,16,11,06,26.70
2013,07,16,11,07,26.80
2013,07,16,11,08,26.80
2013,07,16,11,09,26.80
2013,07,16,11,10,26.90
2013,07,16,11,11,26.80
2013,07,16,11,12,26.80
2013,07,16,11,13,26.80
2013,07,16,11,14,26.80
2013,07,16,11,15,26.70
2013,07,16,11,16,26.60
2013,07,16,11,17,26.60
2013,07,16,11,18,26.60
2013,07,16,11,19,26.70
2013,07,16,11,20,26.80
2013,07,16,11,21,26.80
2013,07,16,11,22,27.00
2013,07,16,11,23,27.10
2013,07,16,11,24,27.30
2013,07,16,11,25,27.30
2013,07,16,11,26,27.30
2013,07,16,11,27,27.30
2013,07,16,11,28,27.30
2013,07,16,11,29,27.30
2013,07,16,11,30,27.30
2013,07,16,11,31,27.30
2013,07,16,11,32,27.30
2013,07,16,11,33,27.40
2013,07,16,11,34,27.40
2013,07,16,11,35,27.40
2013,07,16,11,36,27.30
2013,07,16,11,37,27.40
2013,07,16,11,38,27.40
2013,07,16,11,39,27.50
2013,07,16,11,40,27.60
2013,07,16,11,41,27.60
2013,07,16,11,42,27.70
2013,07,16,11,43,27.90
2013,07,16,11,44,28.00
2013,07,16,11,45,28.00
2013,07,16,11,46,28.00
2013,07,16,11,47,28.00
2013,07,16,11,48,28.10
2013,07,16,11,49,28.10
2013,07,16,11,50,28.20
2013,07,16,11,51,28.20
2013,07,16,11,52,28.30
2013,07,16,11,53,28.30
2013,07,16,11,54,28.30
2013,07,16,11,55,28.40
2013,07,16,11,56,28.50
2013,07,16,11,57,28.60
2013,07,16,11,58,28.60
2013,07,16,11,59,28.60
2013,07,16,12,00,28.60
2013,07,16,12,01,28.50
2013,07,16,12,02,28.40
2013,07,16,12,03,28.40
2013,07,16,12,04,28.40
2013,07,16,12,05,28.50
2013,07,16,12,06,28.60
2013,07,16,12,07,28.80
2013,07,16,12,08,28.80
2013,07,16,12,09,28.80
2013,07,16,12,10,28.80
2013,07,16,12,11,28.70
2013,07,16,12,12,28.60
2013,07,16,12,13,28.50
2013,07,16,12,14,28.40
2013,07,16,12,15,28.20
2013,07,16,12,16,28.10
2013,07,16,12,17,28.00
2013,07,16,12,18,28.00
2013,07,16,12,19,28.10
2013,07,16,12,20,28.20
2013,07,16,12,21,28.20
2013,07,16,12,22,28.10
2013,07,16,12,23,28.10
2013,07,16,12,24,28.20
2013,07,16,12,25,28.10
2013,07,16,12,26,28.10
2013,07,16,12,27,28.10
2013,07,16,12,28,28.10
2013,07,16,12,29,28.10
2013,07,16,12,30,28.10
2013,07,16,12,31,28.20
2013,07,16,12,32,28.20
2013,07,16,12,33,28.20
2013,07,16,12,34,28.30
2013,07,16,12,35,28.30
2013,07,16,12,36,28.50
2013,07,16,12,37,28.60
2013,07,16,12,38,28.70
2013,07,16,12,39,28.80
2013,07,16,12,40,28.80
2013,07,16,12,41,28.80
2013,07,16,12,42,28.70
2013,07,16,12,43,28.60
2013,07,16,12,44,28.60
2013,07,16,12,45,28.70
2013,07,16,12,46,28.60
2013,07,16,12,47,28.70
2013,07,16,12,48,28.70
2013,07,16,12,49,28.70
2013,07,16,12,50,28.70
2013,07,16,12,51,28.60
2013,07,16,12,52,28.50
2013,07,16,12,53,28.40
2013,07,16,12,54,28.40
2013,07,16,12,55,28.40
2013,07,16,12,56,28.40
2013,07,16,12,57,28.40
2013,07,16,12,58,28.40
2013,07,16,12,59,28.40
2013,07,16,13,00,28.40
2013,07,16,13,01,28.40
2013,07,16,13,02,28.30
2013,07,16,13,03,28.40
2013,07,16,13,04,28.50
2013,07,16,13,05,28.60
2013,07,16,13,06,28.60
2013,07,16,13,07,28.70
2013,07,16,13,08,28.90
2013,07,16,13,09,28.90
2013,07,16,13,10,28.90
2013,07,16,13,11,28.90
2013,07,16,13,12,28.90
2013,07,16,13,13,28.80
2013,07,16,13,14,28.70
2013,07,16,13,15,28.60
2013,07,16,13,16,28.40
2013,07,16,13,17,28.30
2013,07,16,13,18,28.20
2013,07,16,13,19,28.20
2013,07,16,13,20,28.10
2013,07,16,13,21,28.10
2013,07,16,13,22,28.10
2013,07,16,13,23,28.20
2013,07,16,13,24,28.20
2013,07,16,13,25,28.30
2013,07,16,13,26,28.40
2013,07,16,13,27,28.40
2013,07,16,13,28,28.40
2013,07,16,13,29,28.40
2013,07,16,13,30,28.40
2013,07,16,13,31,28.40
2013,07,16,13,32,28.40
2013,07,16,13,33,28.50
2013,07,16,13,34,28.60
2013,07,16,13,35,28.60
2013,07,16,13,36,28.60
2013,07,16,13,37,28.60
2013,07,16,13,38,28.50
2013,07,16,13,39,28.40
2013,07,16,13,40,28.40
2013,07,16,13,41,28.40
2013,07,16,13,42,28.50
2013,07,16,13,43,28.60
2013,07,16,13,44,28.50
2013,07,16,13,45,28.40
2013,07,16,13,46,28.40
2013,07,16,13,47,28.40
2013,07,16,13,48,28.50
2013,07,16,13,49,28.60
2013,07,16,13,50,28.60
2013,07,16,13,51,28.60
2013,07,16,13,52,28.60
2013,07,16,13,53,28.60
2013,07,16,13,54,28.50
2013,07,16,13,55,28.40
2013,07,16,13,56,28.40
2013,07,16,13,57,28.40
2013,07,16,13,58,28.40
2013,07,16,13,59,28.50
2013,07,16,14,00,28.60
2013,07,16,14,01,28.60
2013,07,16,14,02,28.70
2013,07,16,14,03,28.60
2013,07,16,14,04,28.60
2013,07,16,14,05,28.60
2013,07,16,14,06,28.60
2013,07,16,14,07,28.40
2013,07,16,14,08,28.40
2013,07,16,14,09,28.40
2013,07,16,14,10,28.40
2013,07,16,14,11,28.30
2013,07,16,14,12,28.30
2013,07,16,14,13,28.30
2013,07,16,14,14,28.30
2013,07,16,14,15,28.20
2013,07,16,14,16,28.20
2013,07,16,14,17,28.20
2013,07,16,14,18,28.20
2013,07,16,14,19,28.20
2013,07,16,14,20,28.20
2013,07,16,14,21,28.30
2013,07,16,14,22,28.30
2013,07,16,14,23,28.40
2013,07,16,14,24,28.40
2013,07,16,14,25,28.40
2013,07,16,14,26,28.40
2013,07,16,14,27,28.40
2013,07,16,14,28,28.40
2013,07,16,14,29,28.60
2013,07,16,14,30,28.60
2013,07,16,14,31,28.50
2013,07,16,14,32,28.40
2013,07,16,14,33,28.40
2013,07,16,14,34,28.40
2013,07,16,14,35,28.30
2013,07,16,14,36,28.30
2013,07,16,14,37,28.30
2013,07,16,14,38,28.30
2013,07,16,14,39,28.30
2013,07,16,14,40,28.30
2013,07,16,14,41,28.30
2013,07,16,14,42,28.30
2013,07,16,14,43,28.30
2013,07,16,14,44,28.30
2013,07,16,14,45,28.30
2013,07,16,14,46,28.30
2013,07,16,14,47,28.40
2013,07,16,14,48,28.40
2013,07,16,14,49,28.30
2013,07,16,14,50,28.30
2013,07,16,14,51,28.20
2013,07,16,14,52,28.20
2013,07,16,14,53,28.20
2013,07,16,14,54,28.10
2013,07,16,14,55,28.00
2013,07,16,14,56,28.00
2013,07,16,14,57,28.00
2013,07,16,14,58,27.90
2013,07,16,14,59,27.90
2013,07,16,15,00,27.90
2013,07,16,15,01,27.90
2013,07,16,15,02,28.00
2013,07,16,15,03,28.00
2013,07,16,15,04,28.00
2013,07,16,15,05,28.00
2013,07,16,15,06,28.00
2013,07,16,15,07,28.00
2013,07,16,15,08,28.00
2013,07,16,15,09,28.00
2013,07,16,15,10,27.90
2013,07,16,15,11,27.90
2013,07,16,15,12,27.90
2013,07,16,15,13,27.90
2013,07,16,15,14,27.80
2013,07,16,15,15,27.80
2013,07,16,15,16,27.90
2013,07,16,15,17,27.90
2013,07,16,15,18,27.90
2013,07,16,15,19,27.90
2013,07,16,15,20,27.90
2013,07,16,15,21,28.00
2013,07,16,15,22,28.10
2013,07,16,15,23,28.10
2013,07,16,15,24,28.20
2013,07,16,15,25,28.20
2013,07,16,15,26,28.20
2013,07,16,15,27,28.20
2013,07,16,15,28,28.30
2013,07,16,15,29,28.40
2013,07,16,15,30,28.50
2013,07,16,15,31,28.60
2013,07,16,15,32,28.70
2013,07,16,15,33,28.80
2013,07,16,15,34,28.80
2013,07,16,15,35,28.90
2013,07,16,15,36,28.90
2013,07,16,15,37,28.90
2013,07,16,15,38,28.90
2013,07,16,15,39,28.90
2013,07,16,15,40,28.90
2013,07,16,15,41,29.10
2013,07,16,15,42,29.10
2013,07,16,15,43,29.10
2013,07,16,15,44,29.20
2013,07,16,15,45,29.20
2013,07,16,15,46,29.20
2013,07,16,15,47,29.20
2013,07,16,15,48,29.20
2013,07,16,15,49,29.30
2013,07,16,15,50,29.40
2013,07,16,15,51,29.50
2013,07,16,15,52,29.50
2013,07,16,15,53,29.60
2013,07,16,15,54,29.70
2013,07,16,15,55,29.70
2013,07,16,15,56,29.70
2013,07,16,15,57,29.60
2013,07,16,15,58,29.50
2013,07,16,15,59,29.40
2013,07,16,16,00,29.40
2013,07,16,16,01,29.40
2013,07,16,16,02,29.40
2013,07,16,16,03,29.40
2013,07,16,16,04,29.50
2013,07,16,16,05,29.50
2013,07,16,16,06,29.50
2013,07,16,16,07,29.50
2013,07,16,16,08,29.50
2013,07,16,16,09,29.40
2013,07,16,16,10,29.40
2013,07,16,16,11,29.40
2013,07,16,16,12,29.40
2013,07,16,16,13,29.40
2013,07,16,16,14,29.40
2013,07,16,16,15,29.40
2013,07,16,16,16,29.50
2013,07,16,16,17,29.50
2013,07,16,16,18,29.50
2013,07,16,16,19,29.40
2013,07,16,16,20,29.40
2013,07,16,16,21,29.40
2013,07,16,16,22,29.40
2013,07,16,16,23,29.40
2013,07,16,16,24,29.40
2013,07,16,16,25,29.30
2013,07,16,16,26,29.30
2013,07,16,16,27,29.20
2013,07,16,16,28,29.20
2013,07,16,16,29,29.10
2013,07,16,16,30,29.10
2013,07,16,16,31,29.10
2013,07,16,16,32,29.00
2013,07,16,16,33,28.90
2013,07,16,16,34,28.90
2013,07,16,16,35,28.80
2013,07,16,16,36,28.60
2013,07,16,16,37,28.50
2013,07,16,16,38,28.30
2013,07,16,16,39,28.20
2013,07,16,16,40,28.10
2013,07,16,16,41,28.00
2013,07,16,16,42,27.90
2013,07,16,16,43,27.80
2013,07,16,16,44,27.80
2013,07,16,16,45,27.70
2013,07,16,16,46,27.70
2013,07,16,16,47,27.70
2013,07,16,16,48,27.70
2013,07,16,16,49,27.70
2013,07,16,16,50,27.70
2013,07,16,16,51,27.70
2013,07,16,16,52,27.70
2013,07,16,16,53,27.70
2013,07,16,16,54,27.70
2013,07,16,16,55,27.70
2013,07,16,16,56,27.70
2013,07,16,16,57,27.70
2013,07,16,16,58,27.70
2013,07,16,16,59,27.70
2013,07,16,17,00,27.60
2013,07,16,17,01,27.60
2013,07,16,17,02,27.50
2013,07,16,17,03,27.40
2013,07,16,17,04,27.30
2013,07,16,17,05,27.30
2013,07,16,17,06,27.30
2013,07,16,17,07,27.30
2013,07,16,17,08,27.30
2013,07,16,17,09,27.30
2013,07,16,17,10,27.30
2013,07,16,17,11,27.30
2013,07,16,17,12,27.30
2013,07,16,17,13,27.30
2013,07,16,17,14,27.30
2013,07,16,17,15,27.30
2013,07,16,17,16,27.20
2013,07,16,17,17,27.20
2013,07,16,17,18,27.20
2013,07,16,17,19,27.20